Time,TemperatureF,DewpointF,PressureIn,WindDirection,WindDirectionDegrees,WindSpeedMPH,WindSpeedGustMPH,Humidity,HourlyPrecipIn,Conditions,Clouds,dailyrainin,SoftwareType,DateUTC
2013-11-21 00:04:00,48.6,36.6,30.08,SE,132,9.2,9.2,63,0.00,RA,,0.00,WeatherDisplay:10.37,2013-11-21 06:04:00,
2013-11-21 00:09:00,48.6,37.0,30.08,SE,132,8.1,8.1,64,0.00,RA,,0.00,WeatherDisplay:10.37,2013-11-21 06:09:00,
2013-11-21 00:14:00,48.6,36.6,30.08,SE,134,8.1,8.1,63,0.00,CLR,,0.00,WeatherDisplay:10.37,2013-11-21 06:14:00,
2013-11-21 00:19:00,48.6,37.0,30.08,SE,133,10.4,10.4,64,0.00,CLR,,0.00,WeatherDisplay:10.37,2013-11-21 06:19:00,
2013-11-21 00:24:00,48.7,37.1,30.08,SE,135,10.4,10.4,64,0.00,CLR,,0.00,WeatherDisplay:10.37,2013-11-21 06:24:00,
2013-11-21 00:29:00,48.8,37.2,30.08,SE,130,6.9,6.9,64,0.00,CLR,,0.00,WeatherDisplay:10.37,2013-11-21 06:29:00,
2013-11-21 00:34:00,48.8,37.2,30.08,SE,132,7.0,7.0,64,0.00,CLR,,0.00,WeatherDisplay:10.37,2013-11-21 06:34:00,
2013-11-21 00:39:00,49.0,36.9,30.08,SE,135,5.8,5.8,63,0.00,CLR,,0.00,WeatherDisplay:10.37,2013-11-21 06:39:00,
2013-11-21 00:44:00,49.2,37.1,30.08,SE,141,9.2,9.2,63,0.00,CLR,,0.00,WeatherDisplay:10.37,2013-11-21 06:44:00,
2013-11-21 00:49:00,49.4,36.9,30.08,South,170,12.7,12.7,62,0.00,CLR,,0.00,WeatherDisplay:10.37,2013-11-21 06:49:00,
2013-11-21 00:54:00,49.6,37.1,30.07,SE,144,15.0,15.0,62,0.00,CLR,,0.00,WeatherDisplay:10.37,2013-11-21 06:54:00,
2013-11-21 00:59:00,49.7,37.2,30.08,SSE,153,15.0,15.0,62,0.00,CLR,,0.00,WeatherDisplay:10.37,2013-11-21 06:59:00,
2013-11-21 01:04:00,49.8,37.3,30.08,SSE,155,13.0,13.0,62,0.00,CLR,,0.00,WeatherDisplay:10.37,2013-11-21 07:04:00,
2013-11-21 01:09:00,49.9,37.4,30.08,South,171,15.0,15.0,62,0.00,CLR,,0.00,WeatherDisplay:10.37,2013-11-21 07:09:00,
2013-11-21 01:14:00,49.9,37.4,30.08,SE,138,11.5,11.5,62,0.00,CLR,,0.00,WeatherDisplay:10.37,2013-11-21 07:14:00,
2013-11-21 01:19:00,49.9,37.4,30.08,SSE,155,17.3,17.3,62,0.00,CLR,,0.00,WeatherDisplay:10.37,2013-11-21 07:19:00,
2013-11-21 01:24:00,49.9,37.4,30.08,SSE,163,17.3,17.3,62,0.00,CLR,,0.00,WeatherDisplay:10.37,2013-11-21 07:24:00,
2013-11-21 01:29:00,49.9,37.4,30.09,South,177,11.5,11.5,62,0.00,CLR,,0.00,WeatherDisplay:10.37,2013-11-21 07:29:00,
2013-11-21 01:34:00,49.8,37.3,30.08,SSE,161,11.5,11.5,62,0.00,CLR,,0.00,WeatherDisplay:10.37,2013-11-21 07:34:00,
2013-11-21 01:39:00,49.7,37.6,30.08,SSE,157,15.0,15.0,63,0.00,CLR,,0.00,WeatherDisplay:10.37,2013-11-21 07:39:00,
2013-11-21 01:44:00,49.7,37.6,30.09,South,176,11.5,11.5,63,0.00,CLR,,0.00,WeatherDisplay:10.37,2013-11-21 07:44:00,
2013-11-21 01:49:00,49.7,38.0,30.09,SSE,162,11.5,11.5,64,0.00,CLR,,0.00,WeatherDisplay:10.37,2013-11-21 07:49:00,
2013-11-21 01:54:00,49.6,37.9,30.09,South,188,11.5,11.5,64,0.00,CLR,,0.00,WeatherDisplay:10.37,2013-11-21 07:54:00,
2013-11-21 01:59:00,49.6,37.9,30.10,SSW,199,12.0,12.0,64,0.00,CLR,,0.00,WeatherDisplay:10.37,2013-11-21 07:59:00,
2013-11-21 02:04:00,49.5,38.2,30.09,South,169,9.0,9.0,65,0.00,CLR,,0.00,WeatherDisplay:10.37,2013-11-21 08:04:00,
2013-11-21 02:09:00,49.5,38.2,30.09,South,187,11.5,11.5,65,0.00,CLR,,0.00,WeatherDisplay:10.37,2013-11-21 08:09:00,
2013-11-21 02:14:00,49.3,38.4,30.09,South,186,6.9,6.9,66,0.01,RA,,0.01,WeatherDisplay:10.37,2013-11-21 08:14:00,
2013-11-21 02:19:00,49.2,38.7,30.09,South,178,8.0,8.0,67,0.01,RA,,0.01,WeatherDisplay:10.37,2013-11-21 08:19:00,
2013-11-21 02:24:00,48.9,38.8,30.09,South,179,8.1,8.1,68,0.01,CLR,,0.01,WeatherDisplay:10.37,2013-11-21 08:24:00,
2013-11-21 02:29:00,48.7,39.0,30.10,South,180,9.0,9.0,69,0.01,CLR,,0.01,WeatherDisplay:10.37,2013-11-21 08:29:00,
2013-11-21 02:34:00,48.3,39.0,30.09,South,180,8.1,8.1,70,0.01,CLR,,0.02,WeatherDisplay:10.37,2013-11-21 08:34:00,
2013-11-21 02:39:00,48.0,39.0,30.09,South,180,5.0,5.0,71,0.02,RA,,0.02,WeatherDisplay:10.37,2013-11-21 08:39:00,
2013-11-21 02:44:00,47.8,39.2,30.09,South,180,4.6,4.6,72,0.02,RA,,0.02,WeatherDisplay:10.37,2013-11-21 08:44:00,
2013-11-21 02:49:00,47.7,39.5,30.08,South,180,4.6,4.6,73,0.02,CLR,,0.02,WeatherDisplay:10.37,2013-11-21 08:49:00,
2013-11-21 02:54:00,47.4,39.5,30.08,South,180,6.0,6.0,74,0.02,CLR,,0.02,WeatherDisplay:10.37,2013-11-21 08:54:00,
2013-11-21 02:59:00,47.3,39.4,30.08,South,178,6.9,6.9,74,0.02,CLR,,0.02,WeatherDisplay:10.37,2013-11-21 08:59:00,
2013-11-21 03:04:00,47.1,39.9,30.08,South,173,6.9,6.9,76,0.02,CLR,,0.02,WeatherDisplay:10.37,2013-11-21 09:04:00,
2013-11-21 03:09:00,46.9,39.7,30.08,SSE,166,6.9,6.9,76,0.03,RA,,0.03,WeatherDisplay:10.37,2013-11-21 09:09:00,
2013-11-21 03:14:00,46.8,40.0,30.09,SSE,165,5.8,5.8,77,0.02,RA,,0.03,WeatherDisplay:10.37,2013-11-21 09:14:00,
2013-11-21 03:19:00,46.7,39.9,30.08,SSE,157,11.5,11.5,77,0.02,CLR,,0.03,WeatherDisplay:10.37,2013-11-21 09:19:00,
2013-11-21 03:24:00,46.7,40.2,30.08,SSE,160,10.4,10.4,78,0.02,CLR,,0.03,WeatherDisplay:10.37,2013-11-21 09:24:00,
2013-11-21 03:29:00,46.5,40.0,30.08,SSE,153,9.2,9.2,78,0.03,RA,,0.04,WeatherDisplay:10.37,2013-11-21 09:29:00,
2013-11-21 03:34:00,46.3,40.1,30.08,SSE,153,5.0,5.0,79,0.03,RA,,0.04,WeatherDisplay:10.37,2013-11-21 09:34:00,
2013-11-21 03:39:00,46.1,40.3,30.08,SSE,154,5.0,5.0,80,0.03,RA,,0.05,WeatherDisplay:10.37,2013-11-21 09:39:00,
2013-11-21 03:44:00,46.0,40.2,30.09,SSE,155,9.2,9.2,80,0.03,RA,,0.05,WeatherDisplay:10.37,2013-11-21 09:44:00,
2013-11-21 03:49:00,45.8,40.3,30.08,SSE,153,7.0,7.0,81,0.03,CLR,,0.05,WeatherDisplay:10.37,2013-11-21 09:49:00,
2013-11-21 03:54:00,45.7,40.5,30.09,SSE,152,7.0,7.0,82,0.03,CLR,,0.05,WeatherDisplay:10.37,2013-11-21 09:54:00,
2013-11-21 03:59:00,45.6,40.4,30.09,SSE,150,5.8,5.8,82,0.03,CLR,,0.05,WeatherDisplay:10.37,2013-11-21 09:59:00,
2013-11-21 04:04:00,45.5,40.6,30.09,SSE,152,5.8,5.8,83,0.03,CLR,,0.05,WeatherDisplay:10.37,2013-11-21 10:04:00,
2013-11-21 04:09:00,45.5,40.6,30.09,SSE,151,3.5,3.5,83,0.02,CLR,,0.05,WeatherDisplay:10.37,2013-11-21 10:09:00,
2013-11-21 04:14:00,45.4,40.5,30.09,SSE,151,4.0,4.0,83,0.02,CLR,,0.05,WeatherDisplay:10.37,2013-11-21 10:14:00,
2013-11-21 04:19:00,45.5,40.6,30.08,SSE,151,4.0,4.0,83,0.02,CLR,,0.05,WeatherDisplay:10.37,2013-11-21 10:19:00,
2013-11-21 04:24:00,45.6,40.7,30.09,SSE,150,4.6,4.6,83,0.02,CLR,,0.05,WeatherDisplay:10.37,2013-11-21 10:24:00,
2013-11-21 04:29:00,45.6,40.7,30.09,SSE,152,4.6,4.6,83,0.02,CLR,,0.05,WeatherDisplay:10.37,2013-11-21 10:29:00,
2013-11-21 04:34:00,45.6,41.0,30.09,SSE,151,4.6,4.6,84,0.01,CLR,,0.05,WeatherDisplay:10.37,2013-11-21 10:34:00,
2013-11-21 04:39:00,45.6,41.0,30.09,SE,144,6.9,6.9,84,0.00,CLR,,0.05,WeatherDisplay:10.37,2013-11-21 10:39:00,
2013-11-21 04:44:00,45.7,40.8,30.09,SE,144,5.8,5.8,83,0.00,CLR,,0.05,WeatherDisplay:10.37,2013-11-21 10:44:00,
2013-11-21 04:49:00,45.8,40.9,30.10,SE,143,4.6,4.6,83,0.00,CLR,,0.05,WeatherDisplay:10.37,2013-11-21 10:49:00,
2013-11-21 04:54:00,45.8,40.9,30.10,SSE,148,8.1,8.1,83,0.00,CLR,,0.05,WeatherDisplay:10.37,2013-11-21 10:54:00,
2013-11-21 04:59:00,45.8,40.9,30.09,SSE,154,6.0,6.0,83,0.00,CLR,,0.05,WeatherDisplay:10.37,2013-11-21 10:59:00,
2013-11-21 05:04:00,45.9,41.0,30.09,SSE,150,10.0,10.0,83,0.00,CLR,,0.05,WeatherDisplay:10.37,2013-11-21 11:04:00,
2013-11-21 05:09:00,46.1,40.9,30.10,SE,145,10.0,12.0,82,0.00,CLR,,0.05,WeatherDisplay:10.37,2013-11-21 11:09:00,
2013-11-21 05:14:00,46.3,41.1,30.09,SE,143,11.5,11.5,82,0.00,CLR,,0.05,WeatherDisplay:10.37,2013-11-21 11:14:00,
2013-11-21 05:19:00,46.3,41.1,30.09,SSE,155,8.1,8.1,82,0.00,CLR,,0.05,WeatherDisplay:10.37,2013-11-21 11:19:00,
2013-11-21 05:24:00,46.2,41.0,30.09,SSE,154,8.1,8.1,82,0.00,CLR,,0.05,WeatherDisplay:10.37,2013-11-21 11:24:00,
2013-11-21 05:29:00,46.2,41.0,30.09,SSE,158,9.2,9.2,82,0.00,CLR,,0.05,WeatherDisplay:10.37,2013-11-21 11:29:00,
2013-11-21 05:34:00,46.3,41.1,30.09,SSE,157,9.2,9.2,82,0.00,CLR,,0.05,WeatherDisplay:10.37,2013-11-21 11:34:00,
2013-11-21 05:39:00,46.5,41.0,30.09,SSE,158,5.8,5.8,81,0.00,CLR,,0.05,WeatherDisplay:10.37,2013-11-21 11:39:00,
2013-11-21 05:44:00,46.6,41.1,30.10,SSE,155,10.4,10.4,81,0.00,CLR,,0.05,WeatherDisplay:10.37,2013-11-21 11:44:00,
2013-11-21 05:49:00,46.8,41.0,30.09,SSE,165,11.5,11.5,80,0.00,CLR,,0.05,WeatherDisplay:10.37,2013-11-21 11:49:00,
2013-11-21 05:54:00,47.0,41.1,30.09,SSE,149,10.4,10.4,80,0.00,CLR,,0.05,WeatherDisplay:10.37,2013-11-21 11:54:00,
2013-11-21 05:59:00,47.1,40.9,30.09,SSE,148,6.9,6.9,79,0.00,CLR,,0.05,WeatherDisplay:10.37,2013-11-21 11:59:00,
2013-11-21 06:04:00,47.2,41.0,30.10,SSE,150,11.5,11.5,79,0.00,CLR,,0.05,WeatherDisplay:10.37,2013-11-21 12:04:00,
2013-11-21 06:09:00,47.3,40.8,30.10,SE,138,11.5,11.5,78,0.00,CLR,,0.05,WeatherDisplay:10.37,2013-11-21 12:09:00,
2013-11-21 06:14:00,47.3,40.8,30.10,SSE,150,10.4,10.4,78,0.00,CLR,,0.05,WeatherDisplay:10.37,2013-11-21 12:14:00,
2013-11-21 06:19:00,47.4,40.9,30.10,SSE,160,11.5,11.5,78,0.00,CLR,,0.05,WeatherDisplay:10.37,2013-11-21 12:19:00,
2013-11-21 06:24:00,47.4,40.6,30.11,SSE,147,15.0,15.0,77,0.00,CLR,,0.05,WeatherDisplay:10.37,2013-11-21 12:24:00,
2013-11-21 06:29:00,47.5,40.6,30.10,SSE,151,11.5,11.5,77,0.00,CLR,,0.05,WeatherDisplay:10.37,2013-11-21 12:29:00,
2013-11-21 06:34:00,47.5,40.6,30.10,SE,136,11.5,11.5,77,0.00,CLR,,0.05,WeatherDisplay:10.37,2013-11-21 12:34:00,
2013-11-21 06:39:00,47.5,40.6,30.11,SSE,167,6.9,6.9,77,0.00,CLR,,0.05,WeatherDisplay:10.37,2013-11-21 12:39:00,
2013-11-21 06:44:00,47.4,40.9,30.10,SSE,153,12.0,12.0,78,0.00,CLR,,0.05,WeatherDisplay:10.37,2013-11-21 12:44:00,
2013-11-21 06:49:00,47.3,40.8,30.10,SE,137,11.5,11.5,78,0.00,CLR,,0.05,WeatherDisplay:10.37,2013-11-21 12:49:00,
2013-11-21 06:54:00,47.4,40.6,30.10,SSE,152,11.5,11.5,77,0.00,CLR,,0.05,WeatherDisplay:10.37,2013-11-21 12:54:00,
2013-11-21 06:59:00,47.4,40.6,30.11,SSE,157,6.9,6.9,77,0.00,CLR,,0.05,WeatherDisplay:10.37,2013-11-21 12:59:00,
2013-11-21 07:04:00,47.5,40.6,30.11,SSE,155,10.4,10.4,77,0.00,CLR,,0.05,WeatherDisplay:10.37,2013-11-21 13:04:00,
2013-11-21 07:09:00,47.5,40.6,30.10,SE,140,12.7,12.7,77,0.00,CLR,,0.05,WeatherDisplay:10.37,2013-11-21 13:09:00,
2013-11-21 07:14:00,47.5,40.6,30.10,SE,138,10.4,10.4,77,0.00,CLR,,0.05,WeatherDisplay:10.37,2013-11-21 13:14:00,
2013-11-21 07:19:00,47.5,40.6,30.11,SE,142,10.4,10.4,77,0.00,CLR,,0.05,WeatherDisplay:10.37,2013-11-21 13:19:00,
2013-11-21 07:24:00,47.5,41.0,30.11,SSE,148,10.0,17.0,78,0.00,CLR,,0.05,WeatherDisplay:10.37,2013-11-21 13:24:00,
2013-11-21 07:29:00,47.5,41.0,30.11,SSE,163,10.4,10.4,78,0.00,CLR,,0.05,WeatherDisplay:10.37,2013-11-21 13:29:00,
2013-11-21 07:34:00,47.6,41.1,30.11,SSE,159,11.5,11.5,78,0.00,CLR,,0.05,WeatherDisplay:10.37,2013-11-21 13:34:00,
2013-11-21 07:39:00,47.5,41.0,30.12,SSE,155,11.5,11.5,78,0.00,CLR,,0.05,WeatherDisplay:10.37,2013-11-21 13:39:00,
2013-11-21 07:44:00,47.4,40.9,30.12,SSE,167,11.5,11.5,78,0.00,CLR,,0.05,WeatherDisplay:10.37,2013-11-21 13:44:00,
2013-11-21 07:49:00,47.3,41.1,30.13,South,171,10.4,10.4,79,0.00,CLR,,0.05,WeatherDisplay:10.37,2013-11-21 13:49:00,
2013-11-21 07:54:00,47.2,41.0,30.13,SSE,164,12.7,12.7,79,0.00,CLR,,0.05,WeatherDisplay:10.37,2013-11-21 13:54:00,
2013-11-21 07:59:00,47.1,40.9,30.12,SE,142,10.4,10.4,79,0.00,CLR,,0.05,WeatherDisplay:10.37,2013-11-21 13:59:00,
2013-11-21 08:04:00,47.2,41.0,30.13,South,178,11.5,11.5,79,0.00,CLR,,0.05,WeatherDisplay:10.37,2013-11-21 14:04:00,
2013-11-21 08:09:00,47.2,41.0,30.13,SSE,157,16.1,16.1,79,0.00,CLR,,0.05,WeatherDisplay:10.37,2013-11-21 14:09:00,
2013-11-21 08:14:00,47.3,41.1,30.13,South,171,11.5,11.5,79,0.00,CLR,,0.05,WeatherDisplay:10.37,2013-11-21 14:14:00,
2013-11-21 08:19:00,47.3,41.1,30.14,South,177,12.7,12.7,79,0.00,CLR,,0.05,WeatherDisplay:10.37,2013-11-21 14:19:00,
2013-11-21 08:24:00,47.4,41.2,30.14,SE,142,15.0,15.0,79,0.00,CLR,,0.05,WeatherDisplay:10.37,2013-11-21 14:24:00,
2013-11-21 08:29:00,47.6,41.1,30.14,SSE,155,11.5,11.5,78,0.00,CLR,,0.05,WeatherDisplay:10.37,2013-11-21 14:29:00,
2013-11-21 08:34:00,47.7,41.2,30.14,SSE,148,15.0,15.0,78,0.00,CLR,,0.05,WeatherDisplay:10.37,2013-11-21 14:34:00,
2013-11-21 08:39:00,47.7,41.2,30.14,SSW,198,11.5,11.5,78,0.00,CLR,,0.05,WeatherDisplay:10.37,2013-11-21 14:39:00,
2013-11-21 08:44:00,47.7,41.2,30.14,SSE,157,11.5,11.5,78,0.00,CLR,,0.05,WeatherDisplay:10.37,2013-11-21 14:44:00,
2013-11-21 08:49:00,47.8,41.3,30.14,SE,140,11.5,11.5,78,0.00,CLR,,0.05,WeatherDisplay:10.37,2013-11-21 14:49:00,
2013-11-21 08:54:00,47.8,41.3,30.14,SSE,167,11.0,11.0,78,0.00,CLR,,0.05,WeatherDisplay:10.37,2013-11-21 14:54:00,
2013-11-21 08:59:00,47.9,41.4,30.14,SSE,155,15.0,15.0,78,0.00,CLR,,0.05,WeatherDisplay:10.37,2013-11-21 14:59:00,
2013-11-21 09:04:00,47.9,41.4,30.14,SSE,162,6.9,6.9,78,0.00,CLR,,0.05,WeatherDisplay:10.37,2013-11-21 15:04:00,
2013-11-21 09:09:00,48.0,41.8,30.14,South,182,11.5,11.5,79,0.00,CLR,,0.05,WeatherDisplay:10.37,2013-11-21 15:09:00,
2013-11-21 09:14:00,48.0,41.8,30.14,South,187,10.4,10.4,79,0.00,CLR,,0.05,WeatherDisplay:10.37,2013-11-21 15:14:00,
2013-11-21 09:19:00,48.0,41.8,30.13,SSE,155,12.7,12.7,79,0.00,CLR,,0.05,WeatherDisplay:10.37,2013-11-21 15:19:00,
2013-11-21 09:24:00,47.9,41.7,30.13,SSE,157,14.0,14.0,79,0.00,CLR,,0.05,WeatherDisplay:10.37,2013-11-21 15:24:00,
2013-11-21 09:29:00,47.9,42.0,30.13,SSW,203,13.8,13.8,80,0.00,CLR,,0.05,WeatherDisplay:10.37,2013-11-21 15:29:00,
2013-11-21 09:34:00,47.9,42.0,30.14,SSE,167,17.3,17.3,80,0.00,CLR,,0.05,WeatherDisplay:10.37,2013-11-21 15:34:00,
2013-11-21 09:39:00,47.8,41.9,30.14,SE,134,16.1,16.1,80,0.00,CLR,,0.05,WeatherDisplay:10.37,2013-11-21 15:39:00,
2013-11-21 09:44:00,47.6,42.1,30.14,SSE,166,16.1,16.1,81,0.00,CLR,,0.05,WeatherDisplay:10.37,2013-11-21 15:44:00,
2013-11-21 09:49:00,47.4,42.2,30.14,South,183,12.7,12.7,82,0.01,RA,,0.06,WeatherDisplay:10.37,2013-11-21 15:49:00,
2013-11-21 09:54:00,47.1,42.5,30.14,SSE,149,10.4,10.4,84,0.01,RA,,0.06,WeatherDisplay:10.37,2013-11-21 15:54:00,
2013-11-21 09:59:00,46.9,42.6,30.14,South,173,18.4,18.4,85,0.02,RA,,0.07,WeatherDisplay:10.37,2013-11-21 15:59:00,
2013-11-21 10:04:00,46.6,42.6,30.14,South,182,16.1,16.1,86,0.03,RA,,0.08,WeatherDisplay:10.37,2013-11-21 16:04:00,
2013-11-21 10:09:00,46.4,42.7,30.14,SE,132,13.8,13.8,87,0.03,RA,,0.08,WeatherDisplay:10.37,2013-11-21 16:09:00,
2013-11-21 10:14:00,46.3,42.9,30.14,SSE,159,18.4,18.4,88,0.04,RA,,0.09,WeatherDisplay:10.37,2013-11-21 16:14:00,
2013-11-21 10:19:00,46.1,42.7,30.14,South,180,10.0,10.0,88,0.04,RA,,0.09,WeatherDisplay:10.37,2013-11-21 16:19:00,
2013-11-21 10:24:00,46.1,43.0,30.14,SSE,164,11.5,11.5,89,0.05,RA,,0.10,WeatherDisplay:10.37,2013-11-21 16:24:00,
2013-11-21 10:29:00,46.0,42.9,30.14,SSE,153,16.1,16.1,89,0.05,RA,,0.10,WeatherDisplay:10.37,2013-11-21 16:29:00,
2013-11-21 10:34:00,46.0,43.2,30.14,SSE,158,10.4,10.4,90,0.05,CLR,,0.10,WeatherDisplay:10.37,2013-11-21 16:34:00,
2013-11-21 10:39:00,46.0,43.2,30.14,SSE,165,12.7,12.7,90,0.05,CLR,,0.10,WeatherDisplay:10.37,2013-11-21 16:39:00,
2013-11-21 10:44:00,46.0,43.2,30.13,South,183,11.5,11.5,90,0.06,RA,,0.11,WeatherDisplay:10.37,2013-11-21 16:44:00,
2013-11-21 10:49:00,46.0,43.2,30.13,South,175,11.5,11.5,90,0.06,RA,,0.11,WeatherDisplay:10.37,2013-11-21 16:49:00,
2013-11-21 10:54:00,46.1,43.3,30.13,SSE,158,12.7,12.7,90,0.05,CLR,,0.11,WeatherDisplay:10.37,2013-11-21 16:54:00,
2013-11-21 10:59:00,46.1,43.3,30.12,South,169,12.7,12.7,90,0.04,CLR,,0.11,WeatherDisplay:10.37,2013-11-21 16:59:00,
2013-11-21 11:04:00,46.2,43.4,30.12,South,172,8.0,8.0,90,0.04,CLR,,0.11,WeatherDisplay:10.37,2013-11-21 17:04:00,
2013-11-21 11:09:00,46.2,43.7,30.11,SSE,163,12.7,12.7,91,0.04,RA,,0.12,WeatherDisplay:10.37,2013-11-21 17:09:00,
2013-11-21 11:14:00,46.2,43.7,30.12,South,190,16.1,16.1,91,0.03,RA,,0.12,WeatherDisplay:10.37,2013-11-21 17:14:00,
2013-11-21 11:19:00,46.3,43.8,30.12,South,173,11.5,11.5,91,0.03,CLR,,0.12,WeatherDisplay:10.37,2013-11-21 17:19:00,
2013-11-21 11:24:00,46.3,43.8,30.11,South,175,11.5,11.5,91,0.02,CLR,,0.12,WeatherDisplay:10.37,2013-11-21 17:24:00,
2013-11-21 11:29:00,46.3,43.8,30.11,SE,142,11.5,11.5,91,0.02,CLR,,0.12,WeatherDisplay:10.37,2013-11-21 17:29:00,
2013-11-21 11:34:00,46.4,43.9,30.11,South,178,9.2,9.2,91,0.02,CLR,,0.12,WeatherDisplay:10.37,2013-11-21 17:34:00,
2013-11-21 11:39:00,46.5,44.0,30.11,SSE,167,8.0,14.0,91,0.00,CLR,,0.12,WeatherDisplay:10.37,2013-11-21 17:39:00,
2013-11-21 11:44:00,46.5,44.0,30.11,South,175,15.0,15.0,91,0.01,CLR,,0.12,WeatherDisplay:10.37,2013-11-21 17:44:00,
2013-11-21 11:49:00,46.6,44.1,30.11,South,169,11.5,11.5,91,0.01,CLR,,0.12,WeatherDisplay:10.37,2013-11-21 17:49:00,
2013-11-21 11:54:00,46.6,44.1,30.11,South,190,15.0,15.0,91,0.01,CLR,,0.12,WeatherDisplay:10.37,2013-11-21 17:54:00,
2013-11-21 11:59:00,46.6,44.1,30.11,SSW,192,11.5,11.5,91,0.01,CLR,,0.12,WeatherDisplay:10.37,2013-11-21 17:59:00,
2013-11-21 12:04:00,46.6,44.1,30.10,South,182,11.5,11.5,91,0.02,RA,,0.13,WeatherDisplay:10.37,2013-11-21 18:04:00,
2013-11-21 12:09:00,46.7,44.2,30.10,South,179,13.8,13.8,91,0.01,RA,,0.13,WeatherDisplay:10.37,2013-11-21 18:09:00,
2013-11-21 12:14:00,46.7,44.2,30.10,South,187,13.8,13.8,91,0.01,,,0.13,WeatherDisplay:10.37,2013-11-21 18:14:00,
2013-11-21 12:19:00,46.7,44.2,30.10,SSW,196,13.0,13.0,91,0.02,RA,,0.14,WeatherDisplay:10.37,2013-11-21 18:19:00,
2013-11-21 12:24:00,46.7,44.2,30.10,South,178,10.4,10.4,91,0.03,RA,,0.15,WeatherDisplay:10.37,2013-11-21 18:24:00,
2013-11-21 12:29:00,46.8,44.3,30.10,South,177,8.1,8.1,91,0.04,RA,,0.16,WeatherDisplay:10.37,2013-11-21 18:29:00,
2013-11-21 12:34:00,46.8,44.6,30.10,South,191,3.5,3.5,92,0.05,RA,,0.17,WeatherDisplay:10.37,2013-11-21 18:34:00,
2013-11-21 12:39:00,46.8,44.6,30.10,South,189,12.0,12.0,92,0.06,RA,,0.18,WeatherDisplay:10.37,2013-11-21 18:39:00,
2013-11-21 12:44:00,46.7,44.5,30.10,South,188,11.5,11.5,92,0.07,RA,,0.19,WeatherDisplay:10.37,2013-11-21 18:44:00,
2013-11-21 12:49:00,46.7,44.5,30.10,South,189,11.5,11.5,92,0.07,RA,,0.19,WeatherDisplay:10.37,2013-11-21 18:49:00,
2013-11-21 12:54:00,46.7,44.5,30.10,SSE,155,12.7,12.7,92,0.08,RA,,0.20,WeatherDisplay:10.37,2013-11-21 18:54:00,
2013-11-21 12:59:00,46.7,44.5,30.10,South,191,11.5,11.5,92,0.09,RA,,0.21,WeatherDisplay:10.37,2013-11-21 18:59:00,
2013-11-21 13:04:00,46.7,44.5,30.10,South,186,11.5,11.5,92,0.10,RA,,0.22,WeatherDisplay:10.37,2013-11-21 19:04:00,
2013-11-21 13:10:00,46.8,44.6,30.10,SSE,157,13.8,13.8,92,0.09,RA,,0.22,WeatherDisplay:10.37,2013-11-21 19:10:00,
2013-11-21 13:15:00,46.8,44.6,30.10,South,186,10.4,10.4,92,0.10,RA,,0.23,WeatherDisplay:10.37,2013-11-21 19:15:00,
2013-11-21 13:20:00,46.8,44.6,30.10,South,186,10.4,10.4,92,0.09,RA,,0.24,WeatherDisplay:10.37,2013-11-21 19:20:00,
2013-11-21 13:25:00,46.7,44.5,30.10,SSW,194,11.5,11.5,92,0.09,RA,,0.25,WeatherDisplay:10.37,2013-11-21 19:25:00,
2013-11-21 13:30:00,46.7,44.5,30.10,South,179,9.2,9.2,92,0.09,RA,,0.25,WeatherDisplay:10.37,2013-11-21 19:30:00,
2013-11-21 13:35:00,46.8,44.6,30.09,South,180,8.1,8.1,92,0.09,RA,,0.26,WeatherDisplay:10.37,2013-11-21 19:35:00,
2013-11-21 13:40:00,46.8,44.6,30.09,South,179,10.4,10.4,92,0.09,RA,,0.27,WeatherDisplay:10.37,2013-11-21 19:40:00,
2013-11-21 13:45:00,46.8,44.6,30.09,South,190,11.5,11.5,92,0.09,RA,,0.28,WeatherDisplay:10.37,2013-11-21 19:45:00,
2013-11-21 13:50:00,46.9,44.7,30.09,South,175,13.0,13.0,92,0.10,RA,,0.29,WeatherDisplay:10.37,2013-11-21 19:50:00,
2013-11-21 13:55:00,46.9,44.7,30.09,South,180,5.0,13.0,92,0.00,RA,,0.30,WeatherDisplay:10.37,2013-11-21 19:55:00,
2013-11-21 14:00:00,46.9,44.7,30.09,South,180,11.5,11.5,92,0.10,RA,,0.31,WeatherDisplay:10.37,2013-11-21 20:00:00,
2013-11-21 14:05:00,46.9,44.7,30.09,South,184,10.4,10.4,92,0.09,RA,,0.32,WeatherDisplay:10.37,2013-11-21 20:05:00,
2013-11-21 14:10:00,46.9,44.7,30.09,SSE,149,9.0,9.0,92,0.10,RA,,0.32,WeatherDisplay:10.37,2013-11-21 20:10:00,
2013-11-21 14:15:00,46.9,44.7,30.09,South,179,10.4,10.4,92,0.10,RA,,0.33,WeatherDisplay:10.37,2013-11-21 20:15:00,
2013-11-21 14:20:00,47.0,44.8,30.09,South,184,9.0,9.0,92,0.11,RA,,0.34,WeatherDisplay:10.37,2013-11-21 20:20:00,
2013-11-21 14:25:00,47.0,45.1,30.09,SSW,198,11.5,11.5,93,0.11,RA,,0.35,WeatherDisplay:10.37,2013-11-21 20:25:00,
2013-11-21 14:30:00,47.0,45.1,30.09,South,181,10.4,10.4,93,0.11,RA,,0.37,WeatherDisplay:10.37,2013-11-21 20:30:00,
2013-11-21 14:35:00,47.0,45.1,30.09,South,181,10.4,10.4,93,0.11,RA,,0.37,WeatherDisplay:10.37,2013-11-21 20:35:00,
2013-11-21 14:40:00,47.0,45.1,30.10,South,188,11.5,11.5,93,0.12,RA,,0.39,WeatherDisplay:10.37,2013-11-21 20:40:00,
2013-11-21 14:45:00,47.1,45.2,30.10,South,176,8.1,8.1,93,0.12,RA,,0.40,WeatherDisplay:10.37,2013-11-21 20:45:00,
2013-11-21 14:50:00,47.1,45.2,30.09,South,184,6.9,6.9,93,0.11,RA,,0.40,WeatherDisplay:10.37,2013-11-21 20:50:00,
2013-11-21 14:55:00,47.2,45.3,30.09,SSE,164,8.1,8.1,93,0.11,RA,,0.41,WeatherDisplay:10.37,2013-11-21 20:55:00,
2013-11-21 15:00:00,47.2,45.3,30.09,SSE,155,5.8,5.8,93,0.10,RA,,0.41,WeatherDisplay:10.37,2013-11-21 21:00:00,
2013-11-21 15:05:00,47.3,45.4,30.10,South,178,10.4,10.4,93,0.11,RA,,0.43,WeatherDisplay:10.37,2013-11-21 21:05:00,
2013-11-21 15:10:00,47.3,45.4,30.10,South,182,12.7,12.7,93,0.12,RA,,0.44,WeatherDisplay:10.37,2013-11-21 21:10:00,
2013-11-21 15:15:00,47.4,45.5,30.09,South,184,10.0,10.0,93,0.11,RA,,0.44,WeatherDisplay:10.37,2013-11-21 21:15:00,
2013-11-21 15:20:00,47.4,45.5,30.10,South,175,6.9,6.9,93,0.11,RA,,0.45,WeatherDisplay:10.37,2013-11-21 21:20:00,
2013-11-21 15:25:00,47.4,45.5,30.09,South,181,10.4,10.4,93,0.10,RA,,0.45,WeatherDisplay:10.37,2013-11-21 21:25:00,
2013-11-21 15:30:00,47.5,45.6,30.10,South,176,11.5,11.5,93,0.10,RA,,0.46,WeatherDisplay:10.37,2013-11-21 21:30:00,
2013-11-21 15:35:00,47.6,45.7,30.10,South,186,13.8,13.8,93,0.09,RA,,0.47,WeatherDisplay:10.37,2013-11-21 21:35:00,
2013-11-21 15:40:00,47.6,45.7,30.09,SSE,165,13.8,13.8,93,0.09,RA,,0.47,WeatherDisplay:10.37,2013-11-21 21:40:00,
2013-11-21 15:45:00,47.7,45.8,30.09,SSE,163,9.2,9.2,93,0.08,RA,,0.47,WeatherDisplay:10.37,2013-11-21 21:45:00,
2013-11-21 15:50:00,47.8,45.9,30.09,South,175,11.5,11.5,93,0.07,CLR,,0.47,WeatherDisplay:10.37,2013-11-21 21:50:00,
2013-11-21 15:55:00,47.8,45.9,30.09,SSW,194,11.5,11.5,93,0.07,RA,,0.48,WeatherDisplay:10.37,2013-11-21 21:55:00,
2013-11-21 16:00:00,47.9,46.0,30.09,South,180,11.5,11.5,93,0.07,RA,,0.48,WeatherDisplay:10.37,2013-11-21 22:00:00,
2013-11-21 16:05:00,47.9,46.0,30.09,South,179,15.0,15.0,93,0.06,CLR,,0.48,WeatherDisplay:10.37,2013-11-21 22:05:00,
2013-11-21 16:10:00,48.0,46.1,30.09,South,188,11.5,11.5,93,0.05,RA,,0.49,WeatherDisplay:10.37,2013-11-21 22:10:00,
2013-11-21 16:15:00,48.1,46.2,30.09,South,175,11.5,11.5,93,0.05,,,0.49,WeatherDisplay:10.37,2013-11-21 22:15:00,
2013-11-21 16:20:00,48.1,46.2,30.09,South,183,10.4,10.4,93,0.05,RA,,0.50,WeatherDisplay:10.37,2013-11-21 22:20:00,
2013-11-21 16:25:00,48.2,46.3,30.09,South,190,9.0,9.0,93,0.06,RA,,0.51,WeatherDisplay:10.37,2013-11-21 22:25:00,
2013-11-21 16:30:00,48.3,46.7,30.09,South,175,11.5,11.5,94,0.05,RA,,0.51,WeatherDisplay:10.37,2013-11-21 22:30:00,
2013-11-21 16:35:00,48.3,46.7,30.09,South,186,11.0,11.0,94,0.06,RA,,0.53,WeatherDisplay:10.37,2013-11-21 22:35:00,
2013-11-21 16:40:00,48.4,46.8,30.10,SSW,206,11.5,11.5,94,0.06,RA,,0.53,WeatherDisplay:10.37,2013-11-21 22:40:00,
2013-11-21 16:45:00,48.4,46.8,30.10,South,171,9.2,9.2,94,0.07,RA,,0.54,WeatherDisplay:10.37,2013-11-21 22:45:00,
2013-11-21 16:50:00,48.5,46.9,30.10,South,183,7.0,7.0,94,0.08,RA,,0.55,WeatherDisplay:10.37,2013-11-21 22:50:00,
2013-11-21 16:55:00,48.5,46.9,30.10,South,180,4.6,4.6,94,0.08,RA,,0.57,WeatherDisplay:10.37,2013-11-21 22:55:00,
2013-11-21 17:00:00,48.5,46.9,30.09,South,182,8.1,8.1,94,0.10,RA,,0.58,WeatherDisplay:10.37,2013-11-21 23:00:00,
2013-11-21 17:05:00,48.5,46.9,30.09,South,185,11.5,11.5,94,0.11,RA,,0.59,WeatherDisplay:10.37,2013-11-21 23:05:00,
2013-11-21 17:10:00,48.6,47.0,30.09,South,184,4.6,4.6,94,0.11,RA,,0.60,WeatherDisplay:10.37,2013-11-21 23:10:00,
2013-11-21 17:15:00,48.6,47.0,30.10,SSE,166,10.4,10.4,94,0.12,RA,,0.61,WeatherDisplay:10.37,2013-11-21 23:15:00,
2013-11-21 17:20:00,48.7,47.1,30.10,South,175,12.7,12.7,94,0.12,RA,,0.62,WeatherDisplay:10.37,2013-11-21 23:20:00,
2013-11-21 17:25:00,48.7,47.1,30.09,South,175,11.5,11.5,94,0.12,RA,,0.63,WeatherDisplay:10.37,2013-11-21 23:25:00,
2013-11-21 17:30:00,48.8,47.2,30.09,SSW,192,10.4,10.4,94,0.12,RA,,0.63,WeatherDisplay:10.37,2013-11-21 23:30:00,
2013-11-21 17:35:00,48.8,47.2,30.09,South,190,11.5,11.5,94,0.11,,,0.63,WeatherDisplay:10.37,2013-11-21 23:35:00,
2013-11-21 17:40:00,48.9,47.2,30.09,South,185,1.0,10.0,94,0.00,RA,,0.64,WeatherDisplay:10.37,2013-11-21 23:40:00,
2013-11-21 17:45:00,48.9,47.2,30.09,South,188,4.6,4.6,94,0.10,RA,,0.64,WeatherDisplay:10.37,2013-11-21 23:45:00,
2013-11-21 17:50:00,49.0,47.3,30.09,South,179,5.8,5.8,94,0.09,CLR,,0.64,WeatherDisplay:10.37,2013-11-21 23:50:00,
2013-11-21 17:55:00,49.0,47.3,30.09,SSE,165,10.4,10.4,94,0.08,CLR,,0.64,WeatherDisplay:10.37,2013-11-21 23:55:00,
2013-11-21 18:00:00,49.0,47.3,30.09,SSE,165,7.0,7.0,94,0.06,CLR,,0.64,WeatherDisplay:10.37,2013-11-22 00:00:00,
2013-11-21 18:05:00,49.0,47.3,30.08,South,178,10.0,10.0,94,0.06,RA,,0.65,WeatherDisplay:10.37,2013-11-22 00:05:00,
2013-11-21 18:10:00,49.0,47.3,30.08,SSE,167,13.8,13.8,94,0.05,RA,,0.65,WeatherDisplay:10.37,2013-11-22 00:10:00,
2013-11-21 18:15:00,49.0,47.3,30.08,South,174,11.5,11.5,94,0.04,CLR,,0.65,WeatherDisplay:10.37,2013-11-22 00:15:00,
2013-11-21 18:20:00,49.0,47.3,30.08,SSE,157,11.5,11.5,94,0.04,CLR,,0.65,WeatherDisplay:10.37,2013-11-22 00:20:00,
2013-11-21 18:25:00,49.0,47.3,30.08,South,182,13.8,13.8,94,0.02,CLR,,0.65,WeatherDisplay:10.37,2013-11-22 00:25:00,
2013-11-21 18:30:00,49.0,47.3,30.09,South,178,13.8,13.8,94,0.02,CLR,,0.65,WeatherDisplay:10.37,2013-11-22 00:30:00,
2013-11-21 18:35:00,49.0,47.3,30.09,South,181,11.5,11.5,94,0.02,CLR,,0.65,WeatherDisplay:10.37,2013-11-22 00:35:00,
2013-11-21 18:40:00,49.0,47.3,30.10,South,190,11.5,11.5,94,0.01,CLR,,0.65,WeatherDisplay:10.37,2013-11-22 00:40:00,
2013-11-21 18:45:00,49.0,47.3,30.10,SSW,196,10.4,10.4,94,0.01,CLR,,0.65,WeatherDisplay:10.37,2013-11-22 00:45:00,
2013-11-21 18:50:00,49.0,47.3,30.10,South,186,9.2,9.2,94,0.01,CLR,,0.65,WeatherDisplay:10.37,2013-11-22 00:50:00,
2013-11-21 18:55:00,49.1,47.4,30.10,South,186,5.8,5.8,94,0.01,CLR,,0.65,WeatherDisplay:10.37,2013-11-22 00:55:00,
2013-11-21 19:00:00,49.1,47.4,30.11,SSW,198,9.2,9.2,94,0.01,CLR,,0.65,WeatherDisplay:10.37,2013-11-22 01:00:00,
2013-11-21 19:05:00,49.1,47.4,30.11,SSW,196,13.8,13.8,94,0.00,CLR,,0.65,WeatherDisplay:10.37,2013-11-22 01:05:00,
2013-11-21 19:10:00,49.1,47.4,30.11,SSW,198,12.7,12.7,94,0.00,CLR,,0.65,WeatherDisplay:10.37,2013-11-22 01:10:00,
2013-11-21 19:15:00,49.1,47.4,30.11,SSW,207,11.5,11.5,94,0.00,CLR,,0.65,WeatherDisplay:10.37,2013-11-22 01:15:00,
2013-11-21 19:20:00,49.1,47.4,30.11,SSW,211,5.8,5.8,94,0.00,CLR,,0.65,WeatherDisplay:10.37,2013-11-22 01:20:00,
2013-11-21 19:25:00,49.1,47.4,30.11,SW,214,4.6,4.6,94,0.01,RA,,0.66,WeatherDisplay:10.37,2013-11-22 01:25:00,
2013-11-21 19:30:00,49.1,47.4,30.11,SSW,194,9.2,9.2,94,0.01,RA,,0.66,WeatherDisplay:10.37,2013-11-22 01:30:00,
2013-11-21 19:35:00,49.2,47.5,30.11,SW,223,11.5,11.5,94,0.01,CLR,,0.66,WeatherDisplay:10.37,2013-11-22 01:35:00,
2013-11-21 19:40:00,49.2,47.5,30.11,South,175,13.8,13.8,94,0.01,CLR,,0.66,WeatherDisplay:10.37,2013-11-22 01:40:00,
2013-11-21 19:45:00,49.2,47.5,30.11,SSW,199,12.7,12.7,94,0.01,CLR,,0.66,WeatherDisplay:10.37,2013-11-22 01:45:00,
2013-11-21 19:50:00,49.2,47.5,30.11,SSW,207,6.0,6.0,94,0.01,CLR,,0.66,WeatherDisplay:10.37,2013-11-22 01:50:00,
2013-11-21 19:55:00,49.2,47.5,30.11,SW,221,6.9,6.9,94,0.01,CLR,,0.66,WeatherDisplay:10.37,2013-11-22 01:55:00,
2013-11-21 20:00:00,49.2,47.5,30.11,SW,218,7.0,12.0,94,0.01,RA,,0.67,WeatherDisplay:10.37,2013-11-22 02:00:00,
2013-11-21 20:05:00,49.2,47.5,30.12,SW,218,4.6,4.6,94,0.02,RA,,0.67,WeatherDisplay:10.37,2013-11-22 02:05:00,
2013-11-21 20:08:00,49.2,47.5,30.12,SW,218,6.0,6.0,94,0.02,RA,,0.67,WeatherDisplay:10.37,2013-11-22 02:08:00,
2013-11-21 20:09:00,49.2,47.5,30.12,SW,218,6.9,6.9,94,0.02,RA,,0.67,WeatherDisplay:10.37,2013-11-22 02:09:00,
2013-11-21 20:14:00,49.2,47.5,30.12,SW,218,3.0,3.0,94,0.02,CLR,,0.67,WeatherDisplay:10.37,2013-11-22 02:14:00,
2013-11-21 20:19:00,49.2,47.5,30.12,SW,220,4.6,4.6,94,0.03,RA,,0.68,WeatherDisplay:10.37,2013-11-22 02:19:00,
2013-11-21 20:24:00,49.2,47.5,30.12,SW,225,3.5,3.5,94,0.02,RA,,0.68,WeatherDisplay:10.37,2013-11-22 02:24:00,
2013-11-21 20:29:00,49.2,47.5,30.12,SW,225,6.9,6.9,94,0.02,CLR,,0.68,WeatherDisplay:10.37,2013-11-22 02:29:00,
2013-11-21 20:34:00,49.2,47.5,30.12,SW,226,3.0,8.0,94,0.00,RA,,0.69,WeatherDisplay:10.37,2013-11-22 02:34:00,
2013-11-21 20:39:00,49.2,47.5,30.12,SW,227,4.6,4.6,94,0.03,RA,,0.69,WeatherDisplay:10.37,2013-11-22 02:39:00,
2013-11-21 20:44:00,49.2,47.5,30.12,SW,229,3.5,3.5,94,0.03,CLR,,0.69,WeatherDisplay:10.37,2013-11-22 02:44:00,
2013-11-21 20:49:00,49.1,47.4,30.12,SW,229,6.0,6.0,94,0.03,CLR,,0.69,WeatherDisplay:10.37,2013-11-22 02:49:00,
2013-11-21 20:54:00,49.1,47.4,30.12,SW,226,6.9,6.9,94,0.03,CLR,,0.69,WeatherDisplay:10.37,2013-11-22 02:54:00,
2013-11-21 20:59:00,49.1,47.7,30.12,SW,224,9.2,9.2,95,0.03,CLR,,0.69,WeatherDisplay:10.37,2013-11-22 02:59:00,
2013-11-21 21:04:00,49.1,47.7,30.12,SW,225,5.8,5.8,95,0.02,CLR,,0.69,WeatherDisplay:10.37,2013-11-22 03:04:00,
2013-11-21 21:09:00,49.1,47.7,30.12,SW,226,5.8,5.8,95,0.02,CLR,,0.69,WeatherDisplay:10.37,2013-11-22 03:09:00,
2013-11-21 21:14:00,49.1,47.4,30.12,SW,227,3.5,3.5,94,0.02,CLR,,0.69,WeatherDisplay:10.37,2013-11-22 03:14:00,
2013-11-21 21:19:00,49.1,47.4,30.12,SW,229,5.0,5.0,94,0.01,CLR,,0.69,WeatherDisplay:10.37,2013-11-22 03:19:00,
2013-11-21 21:24:00,49.1,47.4,30.12,SW,229,6.0,6.0,94,0.01,CLR,,0.69,WeatherDisplay:10.37,2013-11-22 03:24:00,
2013-11-21 21:29:00,49.1,47.4,30.12,SW,230,6.0,6.0,94,0.01,CLR,,0.69,WeatherDisplay:10.37,2013-11-22 03:29:00,
2013-11-21 21:34:00,49.0,47.3,30.12,SW,231,3.5,3.5,94,0.00,CLR,,0.69,WeatherDisplay:10.37,2013-11-22 03:34:00,
2013-11-21 21:39:00,49.0,47.3,30.12,SW,230,2.3,2.3,94,0.00,CLR,,0.69,WeatherDisplay:10.37,2013-11-22 03:39:00,
2013-11-21 21:44:00,49.0,47.3,30.12,SW,230,3.5,3.5,94,0.00,CLR,,0.69,WeatherDisplay:10.37,2013-11-22 03:44:00,
2013-11-21 21:49:00,49.0,47.3,30.12,SW,230,3.5,3.5,94,0.00,CLR,,0.69,WeatherDisplay:10.37,2013-11-22 03:49:00,
2013-11-21 21:54:00,49.0,47.3,30.12,SW,230,3.5,3.5,94,0.00,CLR,,0.69,WeatherDisplay:10.37,2013-11-22 03:54:00,
2013-11-21 21:59:00,49.0,47.3,30.12,SW,229,3.5,3.5,94,0.00,CLR,,0.69,WeatherDisplay:10.37,2013-11-22 03:59:00,
2013-11-21 22:04:00,49.0,47.3,30.12,SW,230,3.5,3.5,94,0.00,CLR,,0.69,WeatherDisplay:10.37,2013-11-22 04:04:00,
2013-11-21 22:09:00,48.9,47.2,30.12,SW,230,1.2,1.2,94,0.00,CLR,,0.69,WeatherDisplay:10.37,2013-11-22 04:09:00,
2013-11-21 22:14:00,49.0,47.3,30.12,SW,230,3.5,3.5,94,0.00,CLR,,0.69,WeatherDisplay:10.37,2013-11-22 04:14:00,
2013-11-21 22:19:00,48.9,47.2,30.12,SW,229,4.6,4.6,94,0.00,CLR,,0.69,WeatherDisplay:10.37,2013-11-22 04:19:00,
2013-11-21 22:24:00,48.9,47.5,30.12,SW,230,4.0,4.0,95,0.00,CLR,,0.69,WeatherDisplay:10.37,2013-11-22 04:24:00,
2013-11-21 22:29:00,48.9,47.5,30.12,SW,230,4.6,4.6,95,0.00,CLR,,0.69,WeatherDisplay:10.37,2013-11-22 04:29:00,
2013-11-21 22:34:00,48.9,47.5,30.12,SW,229,5.8,5.8,95,0.00,CLR,,0.69,WeatherDisplay:10.37,2013-11-22 04:34:00,
2013-11-21 22:39:00,48.8,47.4,30.12,SW,229,4.6,4.6,95,0.00,CLR,,0.69,WeatherDisplay:10.37,2013-11-22 04:39:00,
2013-11-21 22:44:00,48.9,47.5,30.12,SW,229,3.5,3.5,95,0.00,CLR,,0.69,WeatherDisplay:10.37,2013-11-22 04:44:00,
2013-11-21 22:49:00,48.8,47.4,30.12,SW,229,2.3,2.3,95,0.00,CLR,,0.69,WeatherDisplay:10.37,2013-11-22 04:49:00,
2013-11-21 22:54:00,48.8,47.4,30.12,SW,229,3.5,3.5,95,0.00,CLR,,0.69,WeatherDisplay:10.37,2013-11-22 04:54:00,
2013-11-21 22:59:00,48.8,47.4,30.12,SW,229,2.3,2.3,95,0.00,CLR,,0.69,WeatherDisplay:10.37,2013-11-22 04:59:00,
2013-11-21 23:01:00,48.8,47.4,30.12,SW,229,0.0,0.0,95,0.00,CLR,,0.69,WeatherDisplay:10.37,2013-11-22 05:01:00,
2013-11-21 23:02:00,48.8,47.4,30.12,SW,229,2.3,2.3,95,0.00,CLR,,0.69,WeatherDisplay:10.37,2013-11-22 05:02:00,
2013-11-21 23:07:00,48.8,47.4,30.12,SW,229,1.2,1.2,95,0.00,CLR,,0.69,WeatherDisplay:10.37,2013-11-22 05:07:00,
2013-11-21 23:12:00,48.8,47.4,30.12,SW,229,1.2,0.0,95,0.00,CLR,,0.69,WeatherDisplay:10.37,2013-11-22 05:12:00,
2013-11-21 23:17:00,48.8,47.4,30.12,SW,229,2.3,2.3,95,0.00,CLR,,0.69,WeatherDisplay:10.37,2013-11-22 05:17:00,
2013-11-21 23:22:00,48.8,47.4,30.12,SW,229,3.0,3.0,95,0.00,CLR,,0.69,WeatherDisplay:10.37,2013-11-22 05:22:00,
2013-11-21 23:27:00,48.8,47.4,30.13,SW,230,3.5,3.5,95,0.00,CLR,,0.69,WeatherDisplay:10.37,2013-11-22 05:27:00,
2013-11-21 23:32:00,48.8,47.4,30.12,SW,231,3.5,3.5,95,0.00,CLR,,0.69,WeatherDisplay:10.37,2013-11-22 05:32:00,
2013-11-21 23:37:00,48.8,47.4,30.12,SW,231,3.5,3.5,95,0.00,CLR,,0.69,WeatherDisplay:10.37,2013-11-22 05:37:00,
2013-11-21 23:42:00,48.8,47.4,30.12,SW,231,3.5,3.5,95,0.00,CLR,,0.69,WeatherDisplay:10.37,2013-11-22 05:42:00,
2013-11-21 23:47:00,48.7,47.3,30.12,SW,231,3.5,3.5,95,0.00,CLR,,0.69,WeatherDisplay:10.37,2013-11-22 05:47:00,
2013-11-21 23:52:00,48.7,47.3,30.12,SW,231,3.5,3.5,95,0.00,CLR,,0.69,WeatherDisplay:10.37,2013-11-22 05:52:00,
2013-11-21 23:57:00,48.7,47.3,30.12,SW,230,1.2,1.2,95,0.00,CLR,,0.69,WeatherDisplay:10.37,2013-11-22 05:57:00,